Regional Weather Roundup
Issued by NWS Charleston, SC

Current Version | Previous Version | Graphics & Text | Print | Product List | Glossary On
Versions: 1 2 3 4 5 6 7 8 9 10 11 12 13 14 15 16 17 18 19 20 21 22 23 24 25 26 27 28 29 30 31 32 33 34 35 36 37 38 39 40 41 42 43 44 45 46 47 48 49 50
000
ASUS42 KCHS 171827
RWRCHS

REGIONAL WEATHER ROUNDUP
NATIONAL WEATHER SERVICE CHARLESTON SC
200 PM EDT THU AUG 17 2017

NOTE: "FAIR" INDICATES FEW OR NO CLOUDS BELOW 12,000 FEET WITH NO
SIGNIFICANT WEATHER AND/OR OBSTRUCTIONS TO VISIBILITY.

NOT ALL STATIONS ARE QUALITY CONTROLLED. USE DATA WITH CAUTION...
ESPECIALLY DEWPOINT OBSERVATIONS.

SCZ027-030-031-034>040-042>050-171900-
...SOUTHEAST SOUTH CAROLINA...

CITY           SKY/WX    TMP DP  RH WIND       PRES   REMARKS
N CHARLESTON   PTSUNNY   92  78  63 S15       29.99F HX 107
6HR MIN TEMP:  82; 6HR MAX TEMP:  96;

WATERFRONT PRK   N/A    N/A N/A N/A S6        29.86F
JOHNS ISLAND   MOCLDY    86  77  74 W14G21    30.01S THUNDER HX  97
PINOPOLIS        N/A     88  81  79 N5G12     29.93F HX 105
MONCKS CORNER  FAIR      86  75  70 NW6       30.01R THUNDER HX  95
SUMMERVILLE    FAIR      91  77  62 SW3       30.01F HX 105
BEAUFORT MCAS  PTSUNNY   91  77  63 W9        30.01F HX 104
6HR MIN TEMP:  82; 6HR MAX TEMP:  95;

BEAUFORT ARPT  FAIR      91  77  62 S9        30.00F HX 105
HILTON HEAD IS MOSUNNY   91  77  62 E5        30.03F HX 105
WALTERBORO     CLOUDY    93  73  52 W6        30.01F HX 102
ALLENDALE      NOT AVBL

...SOUTHERN MIDLANDS AND PEE DEE...

CITY           SKY/WX    TMP DP  RH WIND       PRES   REMARKS
GEORGETOWN     TSTM      77  77 100 S14       30.01F VSB 3/4
KINGSTREE      FAIR      84  77  79 E5        29.99F HX  94
ORANGEBURG     CLOUDY    89  76  65 S8        30.01F HX 100
6HR MIN TEMP:  78; 6HR MAX TEMP:  93; 6HR PCP:  0.01;

BARNWELL       FAIR      97  77  52 VRB6G14   30.00F HX 112
AIKEN          FAIR      90  73  58 W6        30.05F HX  98
MANNING        FAIR      90  75  62 CALM      30.00S HX 100
COLUMBIA       CLOUDY    90  76  63 E10       29.99F HX 101
6HR MIN TEMP:  80; 6HR MAX TEMP:  96; 6HR PCP:  0.23;

SUMTER         PTSUNNY   96  75  49 NW12      29.97F HX 107
6HR MIN TEMP:  80; 6HR MAX TEMP:  97;

FLORENCE       CLOUDY    91  71  51 SW13      29.99F HX  97
6HR MIN TEMP:  77; 6HR MAX TEMP:  95;

MYRTLE BEACH   MOSUNNY   91  75  59 S14       30.00F HX 102
N MYRTLE BEACH CLOUDY    85  81  88 S7        30.01R HX 100
6HR MIN TEMP:  82; 6HR MAX TEMP:  88; 6HR PCP: TRACE;


$$

GAZ063-065-086>088-099>101-113>116-118-119-134>141-150-171900-
...SOUTHEAST GEORGIA...

CITY           SKY/WX    TMP DP  RH WIND       PRES   REMARKS
SAVANNAH ARPT  PTSUNNY   93  76  57 SW15      30.03F HX 105
6HR MIN TEMP:  81; 6HR MAX TEMP:  96;

HUNTER AAF     MOSUNNY   86  75  70 S3        30.00F HX  95
6HR MIN TEMP:  82; 6HR MAX TEMP:  94; 6HR PCP: TRACE;

FORT STEWART   MOSUNNY   95  73  49 NW14      30.00F HX 105
6HR MIN TEMP:  80; 6HR MAX TEMP:  95;

STATESBORO     SUNNY     93  69  44 NW9       30.03F HX  98
SYLVANIA       CLEAR     93  80  66 NW7       30.03F HX 112
CLAXTON        FAIR      92  77  62 S3        30.03F HX 105

...CSRA...CENTRAL AND FAR SOUTHEAST GEORGIA...

CITY           SKY/WX    TMP DP  RH WIND       PRES   REMARKS
THOMSON        MOSUNNY   93  74  54 NW5       30.07F HX 102
AUGUSTA-BUSH   PTSUNNY   95  74  50 W9        30.01F HX 105
6HR MIN TEMP:  81; 6HR MAX TEMP:  97;

AUGUSTA-DANIEL PTSUNNY   94  71  47 W8        30.03F HX 101
SWAINSBORO     FAIR      93  73  52 W6        30.04F HX 102
VIDALIA        MOSUNNY   93  73  52 W7        30.04F HX 102
EASTMAN        FAIR      88  71  55 NW5       30.08F HX  94
HAZLEHURST     MOCLDY    95  58  29 SW6       30.03F HX  94
ALMA           MOSUNNY   95  74  50 W6        30.04F HX 105
6HR MIN TEMP:  79; 6HR MAX TEMP:  95;

WAYCROSS       PTSUNNY   93  71  47 W8        30.04F HX 100
JESUP          LGT RAIN  90  73  58 NW7       30.03F HX  98
BAXLEY         FAIR      91  72  52 NW7       30.03F HX  98
BRUNSWICK      MOSUNNY   95  72  46 SW3       30.03F HX 103
SAINT SIMONS   CLOUDY    86  79  79 SE8       30.03F HX  99
6HR MIN TEMP:  82; 6HR MAX TEMP:  95; 6HR PCP:  0.04;


$$

SCZ027-028-034-036>038-045-046-048>050-GAZ119-141-171900-
...LAKE AND SUPPLEMENTAL COASTAL OBSERVATIONS...

STATION/POSITION TIME  TEMP    WIND        PRES    WAVE   SWELL
                       AIR SEA DIR/SP/G            HT/PER HT/PER/DIR
                 (UTC) (F)     (DEG/KT/KT) (MB)    (FT/S) (FT/S/D)
WINYAH BAY       1745   86     220/ 19     1016.0S
LAKE MURRAY      1730   90     220/ 11/ 15 1015.2F
ACE BASIN NERRS  1745   95     190/  1     1016.0F
FORT PULASKI     1800   90 86  310/  9/ 12 1017.0
SAPELO ISLAND    1800   86     160/  3     1017.0

$$

ANZ835-935-AMZ111-154-330-350-352-354-370-450-454-472-171900-
...C-MAN AND BUOY OBSERVATIONS...

STATION/POSITION TIME  TEMP    WIND        PRES    WAVE   SWELL
                       AIR SEA DIR/SP/G            HT/PER HT/PER/DIR
                 (UTC) (F)     (DEG/KT/KT) (MB)    (FT/S) (FT/S/D)
BUOY 41004       1810   85 86  210/  6/  8 1016.0
BUOY 41008       1750   87 87  150/  4/  4 1017.0F   1/ 7   2/120/ 7
FOLLY BEACH CMAN 1800   88     200/ 12/ 13 1016.7F
CAPERS NEARSHORE 1808   87 87  210/  8/ 12 1015.9F
FRIPP NEARSHORE  1808   88     230/ 10/ 12 1015.9F


STATION/POSITION TIME  TEMP    WIND        PRES    WAVE   SWELL
                       AIR SEA DIR/SP/G            HT/PER HT/PER/DIR
                 (UTC) (F)     (DEG/KT/KT) (MB)    (FT/S) (FT/S/D)
5E ST. MARYS GA  1800      87                N/A     1/ 8
FRYING PAN BUOY  1810   84 85  190/  8/ 10 1016.2
BUOY 41025       1750   81 84   20/  2/  4 1017.5F   2/ 7   2/ 80/ 7
CAPE LOOKOUT NC  1800   82     130/  7/  8 1016.8F
BUOY 41002       1750   84 85  250/ 10/ 12 1017.6F   2/ 5   2/230/ 5
BUOY 41010       1810   86 86  210/  4/  6 1018.1
ST AUGUSTINE FL  1800   81 81  240/  6/  9 1018.4S


$$




USA.gov is the U.S. government's official web portal to all federal, state and local government web resources and services.